| time (UTC) | temp F | wind direction | speed MPH | gust MPH | rain 1hr in | rain 24hr in | rain mn in | humidity % | barometer mb |
| 20260505003803 | 54 | 277 | 2.0 | 3.0 | 0.01 | 0.10 | 0.01 | 91 | 1011.3 |
| 20260505003303 | 54 | 252 | 1.0 | 2.0 | 0.01 | 0.10 | 0.01 | 91 | 1011.3 |
| 20260505002304 | 54 | 269 | 0.0 | 1.0 | 0.00 | 0.09 | 0.00 | 92 | 1011.2 |
| 20260505001803 | 54 | 269 | 0.0 | 2.0 | 0.00 | 0.09 | 0.00 | 92 | 1011.3 |
| 20260505001304 | 54 | 265 | 1.0 | 3.0 | 0.00 | 0.09 | 0.00 | 92 | 1011.2 |
| 20260505000805 | 54 | 266 | 1.0 | 3.0 | 0.00 | 0.09 | 0.00 | 93 | 1011.2 |
| 20260504235803 | 53 | 322 | 0.0 | 1.0 | 0.00 | 0.09 | 0.00 | 93 | 1011.3 |
| 20260504234804 | 54 | 331 | 0.0 | 1.0 | 0.00 | 0.09 | 0.00 | 93 | 1011.5 |
| 20260504234303 | 54 | 330 | 0.0 | 1.0 | 0.00 | 0.09 | 0.00 | 93 | 1011.3 |
| 20260504233804 | 54 | 336 | 0.0 | 2.0 | 0.00 | 0.09 | 0.00 | 93 | 1011.3 |
| 20260504232804 | 54 | 269 | 0.0 | 0.0 | 0.00 | 0.09 | 0.00 | 93 | 1011.2 |
| 20260504231304 | 54 | 260 | 0.0 | 1.0 | 0.00 | 0.09 | 0.00 | 93 | 1011.2 |
| 20260504225804 | 55 | 330 | 0.0 | 0.0 | 0.00 | 0.09 | 0.00 | 93 | 1011.2 |
| 20260504225304 | 55 | 330 | 0.0 | 0.0 | 0.00 | 0.09 | 0.00 | 93 | 1011.2 |
| 20260504224804 | 55 | 330 | 0.0 | 1.0 | 0.00 | 0.09 | 0.00 | 93 | 1011.2 |
| 20260504224303 | 55 | 330 | 0.0 | 0.0 | 0.00 | 0.09 | 0.00 | 93 | 1011.2 |
| 20260504223804 | 55 | 330 | 0.0 | 0.0 | 0.00 | 0.09 | 0.00 | 93 | 1011.1 |
| 20260504223304 | 55 | 330 | 0.0 | 0.0 | 0.00 | 0.09 | 0.00 | 93 | 1011.1 |
| 20260504222803 | 55 | 330 | 0.0 | 1.0 | 0.00 | 0.09 | 0.00 | 93 | 1011.1 |
| 20260504222304 | 56 | 330 | 0.0 | 0.0 | 0.00 | 0.09 | 0.00 | 93 | 1011.0 |
| 20260504221804 | 56 | 330 | 0.0 | 0.0 | 0.00 | 0.09 | 0.00 | 93 | 1010.9 |
| 20260504221304 | 56 | 330 | 0.0 | 0.0 | 0.00 | 0.09 | 0.00 | 93 | 1010.9 |
| 20260504220811 | 56 | 330 | 0.0 | 0.0 | 0.00 | 0.09 | 0.00 | 93 | 1010.9 |
| 20260504220304 | 56 | 330 | 0.0 | 0.0 | 0.00 | 0.09 | 0.00 | 92 | 1010.9 |
| 20260504215804 | 56 | 330 | 0.0 | 0.0 | 0.00 | 0.09 | 0.09 | 92 | 1010.9 |
| 20260504214803 | 56 | 330 | 0.0 | 0.0 | 0.00 | 0.09 | 0.09 | 92 | 1010.9 |
| 20260504214303 | 56 | 330 | 0.0 | 0.0 | 0.00 | 0.09 | 0.09 | 91 | 1011.0 |
| 20260504213804 | 56 | 330 | 0.0 | 0.0 | 0.00 | 0.09 | 0.09 | 91 | 1010.9 |
| 20260504213303 | 57 | 330 | 0.0 | 0.0 | 0.00 | 0.09 | 0.09 | 91 | 1011.0 |
| 20260504212804 | 57 | 330 | 0.0 | 1.0 | 0.00 | 0.09 | 0.09 | 91 | 1010.9 |
| 20260504211803 | 57 | 318 | 0.0 | 1.0 | 0.01 | 0.09 | 0.09 | 90 | 1011.0 |
| 20260504205804 | 57 | 319 | 0.0 | 0.0 | 0.06 | 0.09 | 0.09 | 91 | 1011.0 |
| 20260504205304 | 57 | 319 | 0.0 | 1.0 | 0.07 | 0.09 | 0.09 | 90 | 1011.0 |
| 20260504204804 | 58 | 319 | 0.0 | 2.0 | 0.07 | 0.09 | 0.09 | 90 | 1010.9 |
| 20260504203804 | 58 | 328 | 0.0 | 0.0 | 0.07 | 0.09 | 0.09 | 90 | 1010.7 |
| 20260504203304 | 58 | 328 | 0.0 | 1.0 | 0.07 | 0.09 | 0.09 | 89 | 1010.7 |
| 20260504202305 | 58 | 323 | 1.0 | 3.0 | 0.07 | 0.09 | 0.09 | 87 | 1011.0 |
| 20260504201804 | 59 | 265 | 0.0 | 1.0 | 0.06 | 0.09 | 0.09 | 87 | 1011.1 |
| 20260504201304 | 59 | 279 | 0.0 | 3.0 | 0.05 | 0.07 | 0.07 | 85 | 1011.0 |
| 20260504200303 | 59 | 313 | 0.0 | 2.0 | 0.02 | 0.05 | 0.05 | 82 | 1011.2 |
| 20260504195804 | 60 | 321 | 1.0 | 3.0 | 0.01 | 0.03 | 0.03 | 81 | 1011.3 |
| 20260504195304 | 60 | 321 | 1.0 | 3.0 | 0.00 | 0.02 | 0.02 | 80 | 1011.4 |
| 20260504194805 | 61 | 306 | 1.0 | 3.0 | 0.00 | 0.02 | 0.02 | 79 | 1011.4 |
| 20260504194304 | 61 | 321 | 2.0 | 5.0 | 0.00 | 0.02 | 0.02 | 77 | 1011.3 |
| 20260504193804 | 62 | 334 | 2.0 | 6.0 | 0.00 | 0.02 | 0.02 | 74 | 1011.2 |
| 20260504193303 | 62 | 292 | 2.0 | 9.0 | 0.00 | 0.02 | 0.02 | 72 | 1011.1 |
| 20260504192804 | 63 | 291 | 2.0 | 7.0 | 0.00 | 0.02 | 0.02 | 71 | 1010.8 |
| 20260504191804 | 64 | 285 | 4.0 | 8.0 | 0.00 | 0.02 | 0.02 | 71 | 1010.3 |
| 20260504191304 | 64 | 252 | 0.0 | 2.0 | 0.00 | 0.02 | 0.02 | 78 | 1010.3 |
| 20260504190804 | 64 | 302 | 0.0 | 3.0 | 0.00 | 0.02 | 0.02 | 79 | 1010.3 |
| 20260504190304 | 64 | 327 | 0.0 | 3.0 | 0.00 | 0.02 | 0.02 | 80 | 1010.3 |
| 20260504185804 | 64 | 328 | 1.0 | 2.0 | 0.00 | 0.02 | 0.02 | 79 | 1010.2 |
| 20260504185304 | 64 | 313 | 0.0 | 2.0 | 0.00 | 0.02 | 0.02 | 79 | 1010.1 |
| 20260504184804 | 64 | 321 | 1.0 | 3.0 | 0.00 | 0.02 | 0.02 | 78 | 1010.0 |
| 20260504184305 | 65 | 324 | 1.0 | 3.0 | 0.00 | 0.02 | 0.02 | 78 | 1009.9 |
| 20260504183804 | 65 | 329 | 1.0 | 3.0 | 0.00 | 0.02 | 0.02 | 77 | 1009.8 |
| 20260504183304 | 65 | 308 | 1.0 | 3.0 | 0.00 | 0.02 | 0.02 | 77 | 1009.7 |
| 20260504182804 | 65 | 329 | 1.0 | 3.0 | 0.00 | 0.02 | 0.02 | 76 | 1009.7 |
| 20260504181803 | 65 | 312 | 1.0 | 3.0 | 0.00 | 0.02 | 0.02 | 75 | 1009.6 |
| 20260504181304 | 66 | 325 | 1.0 | 3.0 | 0.00 | 0.02 | 0.02 | 74 | 1009.4 |
| 20260504180804 | 66 | 329 | 1.0 | 3.0 | 0.00 | 0.02 | 0.02 | 74 | 1009.3 |
| 20260504175804 | 66 | 323 | 2.0 | 3.0 | 0.00 | 0.02 | 0.02 | 74 | 1009.1 |
| 20260504175304 | 66 | 326 | 1.0 | 3.0 | 0.00 | 0.02 | 0.02 | 74 | 1009.1 |
| 20260504174804 | 66 | 313 | 1.0 | 2.0 | 0.00 | 0.02 | 0.02 | 74 | 1009.1 |
| 20260504174304 | 66 | 324 | 2.0 | 3.0 | 0.00 | 0.02 | 0.02 | 73 | 1009.2 |
| 20260504173804 | 66 | 324 | 1.0 | 2.0 | 0.00 | 0.02 | 0.02 | 73 | 1009.1 |
| 20260504173304 | 67 | 321 | 1.0 | 2.0 | 0.00 | 0.02 | 0.02 | 73 | 1009.2 |
| 20260504172804 | 67 | 323 | 1.0 | 3.0 | 0.00 | 0.02 | 0.02 | 73 | 1009.3 |
| 20260504172304 | 67 | 324 | 2.0 | 3.0 | 0.00 | 0.02 | 0.02 | 72 | 1009.3 |
| 20260504171804 | 67 | 323 | 1.0 | 3.0 | 0.00 | 0.02 | 0.02 | 73 | 1009.3 |
| 20260504171304 | 67 | 326 | 0.0 | 3.0 | 0.00 | 0.02 | 0.02 | 72 | 1009.3 |
| 20260504170805 | 67 | 309 | 1.0 | 3.0 | 0.00 | 0.02 | 0.02 | 72 | 1009.4 |
| 20260504170304 | 67 | 329 | 0.0 | 0.0 | 0.00 | 0.02 | 0.02 | 72 | 1009.4 |
| 20260504160304 | 68 | 326 | 1.0 | 2.0 | 0.00 | 0.02 | 0.02 | 74 | 1009.6 |
| 20260504150304 | 66 | 327 | 0.0 | 3.0 | 0.02 | 0.02 | 0.02 | 80 | 1010.0 |
| 20260504141305 | 67 | 327 | 0.0 | 2.0 | 0.00 | 0.00 | 0.00 | 75 | 1010.2 |
| 20260504140804 | 67 | 317 | 1.0 | 3.0 | 0.00 | 0.00 | 0.00 | 74 | 1010.3 |
| 20260504140304 | 68 | 326 | 1.0 | 3.0 | 0.00 | 0.00 | 0.00 | 73 | 1010.3 |
| 20260504130804 | 69 | 314 | 2.0 | 7.0 | 0.00 | 0.00 | 0.00 | 72 | 1010.3 |
| 20260504130304 | 69 | 311 | 2.0 | 6.0 | 0.00 | 0.00 | 0.00 | 72 | 1010.2 |
| 20260504120304 | 70 | 318 | 3.0 | 8.0 | 0.00 | 0.00 | 0.00 | 71 | 1010.2 |
| 20260504110305 | 76 | 324 | 3.0 | 5.0 | 0.00 | 0.00 | 0.00 | 52 | 1010.3 |
| 20260504100304 | 73 | 326 | 1.0 | 3.0 | 0.00 | 0.02 | 0.00 | 58 | 1010.9 |
| 20260504081305 | 68 | 273 | 1.0 | 3.0 | 0.00 | 0.02 | 0.00 | 65 | 1011.4 |
| 20260504080804 | 68 | 264 | 2.0 | 3.0 | 0.00 | 0.02 | 0.00 | 66 | 1011.5 |
| 20260504080304 | 68 | 270 | 1.0 | 5.0 | 0.00 | 0.02 | 0.00 | 66 | 1011.4 |
| 20260504070305 | 65 | 269 | 1.0 | 5.0 | 0.00 | 0.02 | 0.00 | 73 | 1012.0 |
| 20260504050305 | 59 | 273 | 0.0 | 1.0 | 0.00 | 0.02 | 0.00 | 85 | 1012.1 |
| 20260504045804 | 59 | 273 | 0.0 | 1.0 | 0.00 | 0.02 | 0.00 | 85 | 1012.1 |
| 20260504044804 | 59 | 273 | 0.0 | 1.0 | 0.00 | 0.02 | 0.00 | 85 | 1012.1 |
| 20260504044305 | 59 | 273 | 0.0 | 1.0 | 0.00 | 0.02 | 0.00 | 86 | 1012.1 |
| 20260504043304 | 59 | 273 | 0.0 | 1.0 | 0.00 | 0.02 | 0.00 | 87 | 1012.3 |
| 20260504042804 | 59 | 320 | 0.0 | 1.0 | 0.00 | 0.02 | 0.00 | 87 | 1012.3 |
| 20260504042304 | 59 | 323 | 0.0 | 0.0 | 0.00 | 0.02 | 0.00 | 89 | 1012.3 |
| 20260504041304 | 59 | 323 | 0.0 | 0.0 | 0.00 | 0.02 | 0.00 | 89 | 1012.2 |
| 20260504040805 | 59 | 323 | 0.0 | 0.0 | 0.00 | 0.02 | 0.00 | 89 | 1012.2 |
| 20260504040304 | 59 | 323 | 0.0 | 0.0 | 0.00 | 0.02 | 0.00 | 89 | 1012.3 |
| 20260504035305 | 59 | 323 | 0.0 | 0.0 | 0.00 | 0.02 | 0.00 | 88 | 1012.3 |
| 20260504034305 | 59 | 323 | 0.0 | 0.0 | 0.00 | 0.02 | 0.00 | 88 | 1012.2 |
| 20260504033304 | 59 | 323 | 0.0 | 0.0 | 0.00 | 0.02 | 0.00 | 88 | 1012.2 |
| 20260504032305 | 59 | 323 | 0.0 | 0.0 | 0.00 | 0.02 | 0.00 | 87 | 1012.2 |
| 20260504031805 | 59 | 323 | 0.0 | 0.0 | 0.00 | 0.02 | 0.00 | 88 | 1012.2 |
| 20260504030804 | 59 | 323 | 0.0 | 0.0 | 0.00 | 0.02 | 0.00 | 88 | 1012.3 |
| 20260504030305 | 59 | 323 | 0.0 | 0.0 | 0.00 | 0.02 | 0.00 | 88 | 1012.3 |
| 20260504025804 | 59 | 323 | 0.0 | 1.0 | 0.00 | 0.02 | 0.00 | 88 | 1012.3 |
| 20260504025304 | 59 | 322 | 0.0 | 0.0 | 0.00 | 0.02 | 0.00 | 88 | 1012.3 |
| 20260504024805 | 59 | 322 | 0.0 | 0.0 | 0.00 | 0.02 | 0.00 | 88 | 1012.4 |
| 20260504024305 | 59 | 322 | 0.0 | 0.0 | 0.00 | 0.02 | 0.00 | 88 | 1012.3 |
| 20260504023806 | 59 | 322 | 0.0 | 1.0 | 0.00 | 0.02 | 0.00 | 88 | 1012.3 |
| 20260504023305 | 59 | 321 | 0.0 | 1.0 | 0.00 | 0.02 | 0.00 | 88 | 1012.3 |
| 20260504022805 | 59 | 321 | 0.0 | 0.0 | 0.00 | 0.02 | 0.00 | 87 | 1012.2 |
| 20260504022305 | 59 | 321 | 0.0 | 0.0 | 0.00 | 0.02 | 0.00 | 88 | 1012.2 |
| 20260504021805 | 59 | 321 | 0.0 | 0.0 | 0.00 | 0.02 | 0.00 | 88 | 1012.3 |
| 20260504021304 | 59 | 321 | 0.0 | 1.0 | 0.00 | 0.02 | 0.00 | 88 | 1012.3 |
| 20260504020805 | 59 | 321 | 0.0 | 1.0 | 0.00 | 0.02 | 0.00 | 88 | 1012.3 |
| 20260504020305 | 59 | 325 | 0.0 | 1.0 | 0.00 | 0.02 | 0.00 | 88 | 1012.4 |
| 20260504015805 | 59 | 323 | 0.0 | 1.0 | 0.00 | 0.02 | 0.00 | 88 | 1012.6 |
| 20260504015305 | 59 | 325 | 0.0 | 0.0 | 0.00 | 0.02 | 0.00 | 87 | 1012.6 |
| 20260504014805 | 59 | 324 | 0.0 | 0.0 | 0.00 | 0.02 | 0.00 | 87 | 1012.6 |
| 20260504014305 | 60 | 331 | 0.0 | 0.0 | 0.00 | 0.02 | 0.00 | 87 | 1012.6 |
| 20260504013805 | 60 | 331 | 0.0 | 0.0 | 0.00 | 0.02 | 0.00 | 87 | 1012.6 |
| 20260504013304 | 60 | 331 | 0.0 | 0.0 | 0.00 | 0.02 | 0.00 | 87 | 1012.5 |
| 20260504012805 | 60 | 331 | 0.0 | 0.0 | 0.00 | 0.02 | 0.00 | 86 | 1012.5 |
| 20260504012306 | 60 | 331 | 0.0 | 0.0 | 0.00 | 0.02 | 0.00 | 87 | 1012.6 |
| 20260504011805 | 60 | 331 | 0.0 | 0.0 | 0.00 | 0.02 | 0.00 | 87 | 1012.7 |
| 20260504011306 | 60 | 0 | 0.0 | 0.0 | 0.00 | 0.02 | 0.00 | 87 | 1012.8 |
| 20260504010803 | 60 | 331 | 0.0 | 0.0 | 0.00 | 0.02 | 0.00 | 87 | 1012.8 |
| 20260504010303 | 60 | 331 | 0.0 | 0.0 | 0.00 | 0.02 | 0.00 | 86 | 1012.8 |
| 20260504005803 | 60 | 331 | 0.0 | 0.0 | 0.00 | 0.02 | 0.00 | 87 | 1012.9 |
| 20260504005305 | 60 | 331 | 0.0 | 0.0 | 0.00 | 0.02 | 0.00 | 86 | 1012.9 |
| 20260504004803 | 60 | 331 | 0.0 | 0.0 | 0.00 | 0.02 | 0.00 | 86 | 1013.0 |
| 20260504004304 | 60 | 331 | 0.0 | 0.0 | 0.00 | 0.02 | 0.00 | 86 | 1013.1 |